Welcome to the New NWS' Forecast!
Most changes are behind the scenes, but click here for differences you might notice.
Latest weather observations around

Edwards Air Force Base (KEDW)

Using English Units (Switch to International System of Units)
Date/ Time (PDT) Wind (mph) Vis. (mi) Weather Sky Cond. Temp (°F) Rel. Humidity Wind Chill (°F) Heat Index (°F) Pressure Precip. (in)
Air Dwpt 6 hour Altimeter (inHg) Sea level (inHg) 1 hr 3 hr 6 hr
Max Min
Sep 24 09:56 Calm 50.89 Clear CLR 60 25     26%     30 29.97      
Sep 24 08:56 Calm 50.89 Clear CLR 55 27     33%     30 29.97      
Sep 24 07:56 Calm 10 Clear CLR 47 28     46%     29.99 29.97      
Sep 24 06:56 Calm 10 Clear CLR 42 26     53%     29.97 29.95      
Sep 24 05:56 NNE 5 10 Clear CLR 45 28     50% 43   29.95 29.92      
Sep 24 04:56 NNW 6 10 Clear CLR 46 27     47% 43   29.93 29.9      
Sep 24 03:56 SE 6 10 Clear CLR 45 28     50% 42   29.92 29.89      
Sep 24 02:56 WSW 5 10 Clear CLR 50 32     49%     29.91 29.88      
Sep 24 01:56 SSW 5 10 Clear CLR 49 31     50% 48   29.91 29.88      
Sep 23 23:56 SSW 6 10 Clear CLR 54 33     44%     29.9 29.87      
Sep 23 22:56 S 6 10 Clear CLR 56 33     42%     29.89 29.86      
Sep 23 21:56 S 5 10 Clear CLR 61 32     34%     29.88 29.85      
Sep 23 20:56 WNW 10 10 Clear CLR 63 31     30%     29.86 29.83      
Sep 23 19:56 WNW 14 10 Clear CLR 65 33     30%     29.85 29.83      
Sep 23 18:56 WNW 11 10 Clear CLR 69 33     26%     29.83 29.8      
Sep 23 17:56 S 5 50.89 Mostly Clear FEW050 73 24     16%   70 29.83 29.8      
Sep 23 16:56 S 7 50.89 Mostly Clear FEW050 73 24     16%   71 29.83 29.8      
Sep 23 15:56 Calm 50.89 Mostly Clear FEW050 73 24     16%   71 29.83 29.8      
Sep 23 14:56 ESE 5 50.89 Mostly Clear FEW050 73 24     16%   71 29.85 29.82      
Sep 23 13:56 NNE 6 50.89 Mostly Clear FEW050 71 27     19%   69 29.85 29.82      
Sep 23 12:56 Calm 50.89 Mostly Clear FEW050 69 27     21%     29.87 29.84      
Sep 23 11:56 ENE 3 50.89 Mostly Clear FEW050 66 29     25%     29.88 29.85      
Sep 23 10:56 NNE 5 50.89 Mostly Clear FEW050 63 28     26%     29.89 29.86      
Sep 23 09:56 Calm 50.89 Mostly Clear FEW050 59 33     37%     29.89 29.86      
Sep 23 08:56 S 3 50.89 Clear CLR 55 34     44%     29.89 29.86      
Sep 23 07:56 SW 5 50.89 Clear CLR 49 32     53% 47   29.87 29.85      
Sep 23 06:56 SW 5 50.89 Clear   44 31     61% 41   29.86 29.84      
Sep 23 05:56 SW 5 50.89 Mostly Clear FEW120 47 32     57% 44   29.84 29.81      
Sep 23 04:56 SSW 7 10 Clear CLR 47 31     53% 44   29.82 29.79      
Sep 23 03:56 S 3 10 Clear CLR 48 30     50% 47   29.82 29.79      
Sep 23 02:56 SW 8 10 Clear CLR 49 29     47% 45   29.81 29.78      
Sep 23 01:56 SW 8 10 Clear CLR 50 30     46%     29.81 29.78      
Sep 23 00:56 SW 8 10 Clear CLR 50 30     45%     29.81 29.78      
Sep 22 23:56 SW 8 10 Clear CLR 52 29     41%     29.81 29.78      
Sep 22 22:56 SW 9 10 Clear CLR 54 29     38%     29.81 29.78      
Sep 22 21:56 SSW 10 40 Clear CLR 57 29     34%     29.81 29.78      
Sep 22 20:56 W 8 40 Clear CLR 60 30     32%     29.81 29.78      
Sep 22 19:56 W 15 40 Mostly Clear FEW050 62 30     30%     29.79 29.76      
Sep 22 18:56 W 15 50.89 Mostly Clear FEW050 67 25     21%     29.77 29.75      
Sep 22 17:56 W 10 50.89 Mostly Clear FEW050 71 21     15%   69 29.76 29.73      
Sep 22 17:49 W 15 50.89 Mostly Clear FEW050 72 19     14%   69 29.75 29.72      
Sep 22 16:56 NNE 6 50.89 Mostly Clear FEW040 72 22     15%   69 29.76 29.73      
Sep 22 15:56 NNE 8 50.89 Mostly Clear FEW040 72 23     16%   70 29.77 29.73      
Sep 22 14:56 SE 3 50.89 Mostly Clear FEW040 72 23     16%   69 29.8 29.77      
Sep 22 13:56 ESE 6 50.89 Mostly Clear FEW040 69 26     20%     29.82 29.78      
Sep 22 12:56 E 7 50.89 Mostly Clear FEW040 66 29     25%     29.84 29.81      
Sep 22 11:58 NNE 5 50.89 Mostly Clear FEW040 65 31     28%     29.86 29.83      
Sep 22 10:58 E 3 50.89 Mostly Clear FEW040 63 33     32%     29.88 29.85      
Sep 22 09:58 W 5 50.89 Mostly Clear FEW030 59 32     36%     29.89 29.86      
Sep 22 08:58 SW 8 50.89 Clear CLR 56 38     51%     29.88 29.85      
Sep 22 07:58 SW 11 50.89 Clear CLR 50 38     63%     29.87 29.85      
Sep 22 06:58 S 6 50.89 Clear CLR 45 38     75% 42   29.85 29.84      
Sep 22 05:58 SW 8 50 Clear CLR 47 36     66% 43   29.84 29.82      
Sep 22 04:58 SSW 8 10 Clear   48 36     62% 44   29.83 29.8      
Sep 22 03:58 SSW 10 10 Clear CLR 50 35     57% 45   29.82 29.79      
Sep 22 02:58 SW 10 10 Clear CLR 50 36     57%     29.82 29.79      
Sep 22 01:58 WSW 10 10 Clear CLR 55 34     45%     29.82 29.78      
Sep 22 00:58 SW 14 10 Clear CLR 53 36     52%     29.81 29.78      
Sep 21 23:58 SSW 10 10 Clear CLR 53 36     54%     29.82 29.79      
Sep 21 22:58 SW 13 10 Clear CLR 54 36     50%     29.83 29.8      
Sep 21 21:58 WSW 10 40 Clear CLR 57 31     38%     29.83 29.8      
Sep 21 20:58 W 17 40 Mostly Clear FEW040 58 30     34%     29.82 29.79      
Sep 21 19:58 W 16 40 Clear CLR 59 29     31%     29.82 29.79      
Sep 21 18:58 WNW 14 50.89 Mostly Clear FEW050 61 32     34%     29.8 29.77      
Sep 21 17:58 WNW 22 50.89 Partly Cloudy and Windy SCT050 64 31     29%     29.79 29.75      
Sep 21 16:58 W 21 50.89 Partly Cloudy and Windy SCT050 66 34     30%     29.78 29.74      
Sep 21 15:58 WNW 21 50.89 Partly Cloudy and Windy SCT055 68 38     33%     29.77        
Sep 21 15:28 WNW 21 50.89 Partly Cloudy and Windy SCT050 68 39     35%     29.77        
Sep 21 14:58 WNW 17 50.89 Partly Cloudy SCT050 SCT070 68 41     38%     29.77 29.73      
Sep 21 14:15 W 16 50.89 Partly Cloudy SCT047 SCT055 70 45     40%     29.78        
Sep 21 14:06 WSW 17 50.89 Mostly Cloudy SCT046 SCT055 BKN210 70 45     40%     29.78        
Sep 21 13:58 WNW 14 50.89 Partly Cloudy SCT045 SCT070 70 44     40%     29.77 29.73   0  
Sep 21 13:17 WSW 24 50.89 Partly Cloudy and Windy FEW045 SCT065 68 46     46%     29.79        
Sep 21 12:58 WSW 24 50 Partly Cloudy and Windy FEW033 SCT042 SCT060 68 50     53%     29.8 29.76      
Sep 21 11:58 WSW 20 50 Mostly Cloudy and Windy SCT050 BKN065 65 50     59%     29.81 29.77 0    
Sep 21 11:30 WSW 18 30 Mostly Cloudy FEW030 BKN046 BKN055 63 52     68%     29.82        
Sep 21 11:11 SW 28 50 Light Rain OVC044 64 50     60%     29.81        
Sep 21 11:08 WSW 25 50 Light Rain OVC044 64 50     60%     29.81        
Sep 21 10:58 SW 28 50.89 Mostly Cloudy and Breezy BKN045 BKN065 65 50     58%     29.82 29.78      
Jun 12 03:58 W 14 10 Clear CLR 51 35     54%     29.96 29.93      
Jun 11 15:58 WSW 29 50.89 Partly Cloudy and Breezy SCT045 SCT180 68 44     43%     29.82 29.78      
Jun 11 12:58 WSW 25 50.89 Clear and Windy   69 43     40%     29.82 29.78      
Jun 11 07:58 WSW 25 10 Clear and Windy CLR 58 39     50%     29.8 29.76      
Jun 10 15:58 SW 32 50 Mostly Cloudy and Breezy FEW200 BKN260 74 48     40%   73 29.76 29.71      
Jun 10 11:58 SW 21 50 Mostly Cloudy and Windy BKN300 74 40     30%   73 29.8 29.75      
Jun 10 08:58 WSW 24 50 Mostly Clear and Windy FEW300 67 46     46%     29.82 29.77      
Jun 10 06:58 SW 15 50 Clear CLR 60 49     67%     29.82 29.77      
Jun 09 13:58 SW 22 50 Mostly Clear and Windy FEW060 FEW280 83 48     29%   82 29.84 29.78      
Jun 08 21:58 WSW 15 40 Clear CLR 74 27     17%   71 29.91 29.85      
Jun 08 18:58 WNW 21 50.89 Mostly Cloudy and Windy BKN280 83        %     29.87 29.81      
Jun 08 16:58 SW 24 50.89 Mostly Cloudy and Windy BKN280 87 40     19%   83 29.87 29.8      
Jun 08 14:58 SW 25 50.89 Mostly Cloudy and Windy BKN280 88 41     20%   84 29.89 29.82      
Jun 08 10:58 SW 11 50.89 Mostly Cloudy FEW150 BKN250 81 37     20%   80 29.93 29.86      
Jun 08 05:58 SW 10 50.89 Mostly Cloudy BKN250 61 46     57%     29.93 29.87      
Notice The following observation data may not be complete
Jun 07 20:58   40 Mostly Cloudy BKN300          %              
Jun 07 19:58 SW 20 50.89 Partly Cloudy and Windy SCT300 79 33     19%   77 29.85 29.78      
Jun 07 13:15 WSW 13 50.89 Mostly Cloudy BKN300 95 21     7%   89 29.87 29.79      
Jun 07 12:58 SSW 9 50.89 Mostly Cloudy BKN300 94        %     29.88 29.8      
Jun 06 00:58 SSW 8 10 Clear CLR 68 38     34%     29.87 29.8      
Jun 05 21:58 SW 11 50 Partly Cloudy SCT330 75 41     29%   74 29.88 29.8      
Jun 05 20:58 WSW 14 50 Partly Cloudy SCT330 79 44     29%   78 29.86 29.78      
Jun 05 15:16   50.89 Mostly Clear FEW330 97 23     7%   90 29.8 29.72      
Jun 05 14:58 WSW 16 50.89 Mostly Clear FEW330 97        %     29.81 29.73      
Notice The following observation data may not be complete
Jun 05 12:58   50.89 Mostly Clear FEW300          %